Southend-On-Sea, United Kingdom

8:14 AM BST on August 23, 2017 (GMT +0100)
Southend

Weather History for EGMC - August, 2013

Change the Weather History Date:

Sunday, August 18, 2013

  Actual Average Record
Temperature  
Mean Temperature 68 °F -  
Max Temperature 75 °F 67 °F 87 °F (2012)
Min Temperature 60 °F 53 °F 53 °F (1996)
Cooling Degree Days 2    
Growing Degree Days 18 (Base 50)    
Moisture  
Dew Point 55 °F    
Average Humidity 68    
Maximum Humidity 88    
Minimum Humidity 41    
Precipitation  
Precipitation 0.00 in - - ()
Sea Level Pressure  
Sea Level Pressure 29.80 in    
Wind  
Wind Speed 13 mph ()    
Max Wind Speed 22 mph    
Max Gust Speed -    
Visibility 6.2 miles    
Events Rain    
Averages and records for this station are not official NWS values.
T = Trace of Precipitation, MM = Missing Value Source: Averaged Metar Reports

Daily Weather History Graph

Daily Weather History Graph

Search for Another Location

Airport or City:

Trip Planner

Search our weather history database for the weather conditions in past years. The results will help you decide how hot, cold, wet, or windy it might be!

Date:

Astronomy

Aug. 18, 2013 Rise Set
Actual Time 5:47 AM BST 8:13 PM BST
Civil Twilight 5:10 AM BST 8:50 PM BST
Nautical Twilight 4:23 AM BST 9:37 PM BST
Astronomical Twilight 3:27 AM BST 10:32 PM BST
Moon 6:15 PM BST (8/18) 2:28 AM BST (8/18)
Length of Visible Light 15h 40m
Length of Day
14h 26m
Waxing Gibbous, 90% of the Moon is Illuminated
Aug 18
Waxing Gibbous
Aug 21
Full
Aug 28
Last Quarter
Sep 5
New
Sep 12
First Quarter

Hourly Weather History & Observations

Time (BST) Temp. Dew Point Humidity Pressure Visibility Wind Dir Wind Speed Gust Speed Precip Events Conditions
12:50 AM 60.8 °F 57.2 °F 88% 29.74 in 6.2 mi SW 21.9 mph - N/A Rain Light Rain
1:20 AM 64.4 °F 59.0 °F 83% 29.74 in 6.2 mi SW 17.3 mph - N/A   Overcast
1:50 AM 62.6 °F 59.0 °F 88% 29.74 in 6.2 mi SSW 17.3 mph - N/A   Overcast
2:20 AM 62.6 °F 59.0 °F 88% 29.74 in 6.2 mi SSW 16.1 mph - N/A   Overcast
2:50 AM 62.6 °F 59.0 °F 88% 29.71 in 6.2 mi SW 16.1 mph - N/A   Overcast
3:50 AM 62.6 °F 59.0 °F 88% 29.71 in 6.2 mi SSW 16.1 mph - N/A   Mostly Cloudy
4:20 AM 62.6 °F 59.0 °F 88% 29.71 in 6.2 mi SW 10.4 mph - N/A   Mostly Cloudy
4:50 AM 62.6 °F 59.0 °F 88% 29.71 in 6.2 mi SW 12.7 mph - N/A   Scattered Clouds
5:20 AM 62.6 °F 59.0 °F 88% 29.71 in 6.2 mi SW 11.5 mph - N/A   Partly Cloudy
5:50 AM 62.6 °F 57.2 °F 82% 29.74 in 6.2 mi SW 13.8 mph - N/A   Partly Cloudy
6:20 AM 60.8 °F 57.2 °F 88% 29.74 in 6.2 mi WSW 10.4 mph - N/A   Partly Cloudy
6:50 AM 62.6 °F 57.2 °F 82% 29.74 in 6.2 mi WSW 11.5 mph - N/A   Partly Cloudy
7:20 AM 62.6 °F 57.2 °F 82% 29.77 in 6.2 mi SW 12.7 mph - N/A   Partly Cloudy
7:50 AM 62.6 °F 57.2 °F 82% 29.77 in 6.2 mi WSW 15.0 mph - N/A   Partly Cloudy
8:20 AM 62.6 °F 57.2 °F 82% 29.77 in 6.2 mi WSW 11.5 mph - N/A   Partly Cloudy
8:50 AM 66.2 °F 57.2 °F 73% 29.80 in 6.2 mi WSW 13.8 mph - N/A   Mostly Cloudy
9:20 AM 66.2 °F 55.4 °F 68% 29.80 in 6.2 mi WSW 12.7 mph - N/A   Partly Cloudy
9:50 AM 66.2 °F 55.4 °F 68% 29.80 in 6.2 mi WSW 16.1 mph - N/A   Scattered Clouds
10:20 AM 68.0 °F 55.4 °F 64% 29.80 in 6.2 mi WSW 16.1 mph - N/A   Scattered Clouds
10:50 AM 69.8 °F 55.4 °F 60% 29.80 in 6.2 mi WSW 13.8 mph - N/A   Scattered Clouds
11:20 AM 69.8 °F 53.6 °F 56% 29.80 in 6.2 mi West 13.8 mph - N/A   Scattered Clouds
11:50 AM 69.8 °F 53.6 °F 56% 29.83 in 6.2 mi West 13.8 mph - N/A   Scattered Clouds
12:20 PM 68.0 °F 53.6 °F 60% 29.83 in 6.2 mi WSW 12.7 mph - N/A   Scattered Clouds
12:50 PM 68.0 °F 51.8 °F 56% 29.83 in 6.2 mi WSW 9.2 mph - N/A   Scattered Clouds
1:20 PM 71.6 °F 53.6 °F 53% 29.83 in 6.2 mi WSW 10.4 mph - N/A   Partly Cloudy
1:50 PM 73.4 °F 53.6 °F 50% 29.83 in 6.2 mi WSW 11.5 mph - N/A   Partly Cloudy
2:20 PM 73.4 °F 51.8 °F 47% 29.83 in 6.2 mi SW 12.7 mph - N/A   Partly Cloudy
2:50 PM 73.4 °F 53.6 °F 50% 29.83 in 6.2 mi WSW 13.8 mph - N/A   Partly Cloudy
3:20 PM 73.4 °F 50.0 °F 44% 29.83 in 6.2 mi WSW 12.7 mph - N/A   Partly Cloudy
3:50 PM 75.2 °F 50.0 °F 41% 29.80 in 6.2 mi WSW 12.7 mph - N/A   Partly Cloudy
4:20 PM 73.4 °F 51.8 °F 47% 29.83 in 6.2 mi WSW 11.5 mph - N/A   Partly Cloudy
4:50 PM 75.2 °F 50.0 °F 41% 29.83 in 6.2 mi WSW 12.7 mph - N/A   Partly Cloudy
5:20 PM 71.6 °F 50.0 °F 46% 29.83 in 6.2 mi WSW 13.8 mph - N/A   Partly Cloudy
5:50 PM 71.6 °F 53.6 °F 53% 29.83 in 6.2 mi WSW 17.3 mph - N/A   Partly Cloudy
6:20 PM 71.6 °F 55.4 °F 57% 29.83 in - WSW 16.1 mph - N/A   Clear
6:50 PM 69.8 °F 55.4 °F 60% 29.83 in - SW 18.4 mph - N/A   Clear
7:20 PM 68.0 °F 53.6 °F 60% 29.83 in - SW 13.8 mph - N/A   Clear
7:50 PM 66.2 °F 55.4 °F 68% 29.83 in 6.2 mi SW 11.5 mph - N/A   Partly Cloudy
8:20 PM 66.2 °F 55.4 °F 68% 29.86 in 6.2 mi SW 10.4 mph - N/A   Partly Cloudy
8:50 PM 66.2 °F 55.4 °F 68% 29.86 in - SW 11.5 mph - N/A   Clear
9:20 PM 66.2 °F 55.4 °F 68% 29.86 in - WSW 10.4 mph - N/A   Clear
9:50 PM 64.4 °F 55.4 °F 73% 29.86 in - WSW 11.5 mph - N/A   Clear
10:20 PM 64.4 °F 55.4 °F 73% 29.86 in - WSW 11.5 mph - N/A   Clear
10:50 PM 64.4 °F 55.4 °F 73% 29.89 in - WSW 10.4 mph - N/A   Clear
11:20 PM 64.4 °F 55.4 °F 73% 29.89 in - WSW 8.1 mph - N/A   Clear
11:50 PM 64.4 °F 55.4 °F 73% 29.89 in - WSW 10.4 mph - N/A   Clear